Location: Bremen
(53.0793°N, 8.8017°E)
Time: 20:44:52
(UTC+01:00)

S-56A Canister/Altair - Pass Details

Date: 05 December 2021
Orbit: 634 x 2499 km, 38.9° (Epoch: 26 January)

Event Time Altitude Azimuth Distance (km) Brightness Sun altitude
Rises 03:45:40 0° 258° (WSW) 4,184 - -39.9°
Reaches altitude 10° 03:49:54 10° 241° (WSW) 2,855 - -39.3°
Maximum altitude 03:53:58 17° 202° (SSW) 2,067 - -38.7°
Drops below altitude 10° 03:57:22 10° 162° (SSE) 2,301 - -38.2°
Exits shadow 03:59:47 - 144° (SE) 2,910 10.7 -37.9°
Sets 04:00:17 0° 141° (SE) 3,063 10.9 -37.8°
